Cheraw, SC

4:43 AM EDT on May 28, 2017 (GMT -0400)
Cheraw

Weather History for KCQW - September, 2013

Change the Weather History Date:

Tuesday, September 17, 2013

  Actual Average (KFLO) Record (KFLO)
Temperature  
Mean Temperature 68 °F -  
Max Temperature 78 °F 83 °F 96 °F (2005)
Min Temperature 59 °F 65 °F 49 °F (2001)
Cooling Degree Days 4    
Growing Degree Days 18 (Base 50)    
Moisture  
Dew Point 54 °F    
Average Humidity 60    
Maximum Humidity 82    
Minimum Humidity 34    
Precipitation  
Precipitation 0.03 in - - ()
Sea Level Pressure  
Sea Level Pressure 30.24 in    
Wind  
Wind Speed 15 mph (NE)    
Max Wind Speed 29 mph    
Max Gust Speed 39 mph    
Visibility 10 miles    
Events Rain    
Averages and records for this station are not official NWS values.
T = Trace of Precipitation, MM = Missing Value Source: NWS Daily Summary

Daily Weather History Graph

Daily Weather History Graph

Search for Another Location

Airport or City:

Trip Planner

Search our weather history database for the weather conditions in past years. The results will help you decide how hot, cold, wet, or windy it might be!

Date:

Astronomy

Sep. 17, 2013 Rise Set
Actual Time 7:04 AM EDT 7:23 PM EDT
Civil Twilight 6:39 AM EDT 7:48 PM EDT
Nautical Twilight 6:09 AM EDT 8:18 PM EDT
Astronomical Twilight 5:39 AM EDT 8:48 PM EDT
Moon 6:07 PM EDT (9/17) 5:00 AM EDT (9/17)
Length of Visible Light 13h 09m
Length of Day
12h 19m
Waxing Gibbous, 96% of the Moon is Illuminated
Sep 17
Waxing Gibbous
Sep 19
Full
Sep 26
Last Quarter
Oct 4
New
Oct 11
First Quarter

Hourly Weather History & Observations

Time (EDT) Temp. Dew Point Humidity Pressure Visibility Wind Dir Wind Speed Gust Speed Precip Events Conditions
12:15 AM 71.6 °F 62.6 °F 73% - 10.0 mi NE 9.2 mph - N/A   Scattered Clouds
12:35 AM 71.6 °F 60.8 °F 69% - 10.0 mi ENE 9.2 mph - N/A   Scattered Clouds
12:55 AM 69.8 °F 60.8 °F 73% - 10.0 mi NE 10.4 mph - N/A   Clear
1:15 AM 69.8 °F 60.8 °F 73% - 10.0 mi NE 10.4 mph 17.3 mph N/A   Partly Cloudy
1:35 AM 68.0 °F 60.8 °F 78% - 10.0 mi NE 11.5 mph - N/A   Mostly Cloudy
1:55 AM 69.8 °F 59.0 °F 68% - 10.0 mi NE 12.7 mph - N/A   Mostly Cloudy
2:15 AM 71.6 °F 59.0 °F 64% - 10.0 mi NE 15.0 mph 23.0 mph N/A   Scattered Clouds
2:35 AM 71.6 °F 60.8 °F 69% - 10.0 mi ENE 18.4 mph 25.3 mph N/A   Mostly Cloudy
2:55 AM 69.8 °F 59.0 °F 68% - 10.0 mi ENE 23.0 mph 32.2 mph N/A   Mostly Cloudy
3:15 AM 69.8 °F 59.0 °F 68% - 10.0 mi ENE 16.1 mph 38.0 mph N/A   Overcast
3:35 AM 68.0 °F 59.0 °F 73% - 10.0 mi ENE 17.3 mph 29.9 mph N/A   Scattered Clouds
3:55 AM 68.0 °F 57.2 °F 68% - 10.0 mi NE 26.5 mph 38.0 mph N/A   Clear
4:15 AM 68.0 °F 57.2 °F 68% - 10.0 mi NE 15.0 mph 24.2 mph N/A   Clear
4:35 AM 66.2 °F 57.2 °F 73% - 10.0 mi NE 15.0 mph 23.0 mph N/A   Clear
4:55 AM 66.2 °F 57.2 °F 73% - 10.0 mi NE 12.7 mph 24.2 mph N/A   Mostly Cloudy
5:15 AM 66.2 °F 55.4 °F 68% - 10.0 mi NE 16.1 mph 31.1 mph N/A   Mostly Cloudy
5:35 AM 66.2 °F 55.4 °F 68% - 10.0 mi NE 17.3 mph 20.7 mph N/A   Mostly Cloudy
5:55 AM 66.2 °F 55.4 °F 68% - 10.0 mi NE 19.6 mph 26.5 mph N/A   Overcast
6:15 AM 66.2 °F 55.4 °F 68% - 10.0 mi NNE 16.1 mph 25.3 mph N/A   Mostly Cloudy
6:35 AM 66.2 °F 55.4 °F 68% - 10.0 mi NE 12.7 mph 25.3 mph N/A   Mostly Cloudy
6:55 AM 64.4 °F 57.2 °F 77% - 10.0 mi NE 15.0 mph 23.0 mph N/A   Scattered Clouds
7:15 AM 64.4 °F 57.2 °F 77% - 10.0 mi NNE 12.7 mph 17.3 mph N/A   Clear
7:35 AM 64.4 °F 57.2 °F 77% - 10.0 mi NE 17.3 mph 24.2 mph N/A   Partly Cloudy
7:55 AM 64.4 °F 57.2 °F 77% - 10.0 mi NE 17.3 mph 24.2 mph N/A   Mostly Cloudy
8:15 AM 64.4 °F 57.2 °F 77% - 10.0 mi NE 16.1 mph 23.0 mph N/A   Overcast
8:35 AM 66.2 °F 57.2 °F 73% 30.26 in 10.0 mi NNE 18.4 mph 25.3 mph N/A   Mostly Cloudy
8:55 AM 66.2 °F 57.2 °F 73% 30.26 in 10.0 mi NE 21.9 mph 29.9 mph N/A   Mostly Cloudy
9:15 AM 66.2 °F 57.2 °F 73% 30.27 in - NE 18.4 mph 27.6 mph N/A   Mostly Cloudy
9:35 AM 68.0 °F 57.2 °F 68% 30.27 in 10.0 mi ENE 21.9 mph 31.1 mph 0.03 in Rain Light Rain
9:55 AM 68.0 °F 57.2 °F 68% 30.28 in 10.0 mi ENE 20.7 mph 31.1 mph 0.03 in   Partly Cloudy
10:15 AM 69.8 °F 55.4 °F 60% 30.29 in 10.0 mi ENE 24.2 mph 38.0 mph N/A   Partly Cloudy
10:35 AM - - N/A% 30.29 in - ENE 23.0 mph 34.5 mph N/A   Unknown
10:55 AM 71.6 °F 55.4 °F 57% 30.29 in 10.0 mi East 28.8 mph 35.7 mph N/A   Mostly Cloudy
11:15 AM 71.6 °F 53.6 °F 53% 30.29 in 10.0 mi ENE 20.7 mph 33.4 mph N/A   Mostly Cloudy
11:35 AM 71.6 °F 53.6 °F 53% 30.29 in 10.0 mi East 26.5 mph 33.4 mph N/A   Mostly Cloudy
11:55 AM 73.4 °F 53.6 °F 50% 30.29 in 10.0 mi East 20.7 mph 28.8 mph N/A   Mostly Cloudy
12:15 PM 73.4 °F 51.8 °F 47% 30.29 in 10.0 mi ENE 24.2 mph 33.4 mph N/A   Mostly Cloudy
12:35 PM 73.4 °F 51.8 °F 47% 30.28 in 10.0 mi NE 24.2 mph 38.0 mph N/A   Mostly Cloudy
12:55 PM 73.4 °F 53.6 °F 50% 30.28 in 10.0 mi ENE 15.0 mph 28.8 mph N/A   Mostly Cloudy
1:15 PM 75.2 °F 53.6 °F 47% 30.27 in 10.0 mi NE 15.0 mph 31.1 mph N/A   Scattered Clouds
1:35 PM 75.2 °F 51.8 °F 44% 30.26 in 10.0 mi ENE 13.8 mph 27.6 mph N/A   Scattered Clouds
1:55 PM 77.0 °F 51.8 °F 41% 30.25 in 10.0 mi East 25.3 mph 32.2 mph N/A   Partly Cloudy
2:15 PM 77.0 °F 50.0 °F 39% 30.24 in 10.0 mi North 21.9 mph 26.5 mph N/A   Partly Cloudy
2:35 PM 78.8 °F 50.0 °F 36% 30.24 in 10.0 mi NE 17.3 mph 39.1 mph N/A   Partly Cloudy
2:55 PM 78.8 °F 50.0 °F 36% 30.23 in 10.0 mi ENE 19.6 mph 27.6 mph N/A   Partly Cloudy
3:15 PM 77.0 °F 50.0 °F 39% 30.22 in 10.0 mi NE 13.8 mph 27.6 mph N/A   Scattered Clouds
3:35 PM 78.8 °F 50.0 °F 36% 30.22 in 10.0 mi NNE 17.3 mph 32.2 mph N/A   Clear
3:55 PM 78.8 °F 50.0 °F 36% 30.21 in 10.0 mi NNE 19.6 mph 28.8 mph N/A   Clear
4:15 PM 78.8 °F 48.2 °F 34% 30.21 in 10.0 mi NE 18.4 mph 31.1 mph N/A   Clear
4:35 PM 78.8 °F 48.2 °F 34% 30.20 in 10.0 mi NE 20.7 mph 34.5 mph N/A   Clear
4:55 PM 77.0 °F 48.2 °F 36% 30.20 in 10.0 mi NE 20.7 mph 28.8 mph N/A   Clear
5:15 PM 78.8 °F 48.2 °F 34% 30.20 in 10.0 mi ENE 21.9 mph 26.5 mph N/A   Clear
5:35 PM 77.0 °F 46.4 °F 34% 30.20 in 10.0 mi ENE 15.0 mph 26.5 mph N/A   Clear
5:55 PM 77.0 °F 46.4 °F 34% 30.20 in 10.0 mi East 16.1 mph 27.6 mph N/A   Clear
6:15 PM 75.2 °F 46.4 °F 36% 30.20 in 10.0 mi ENE 23.0 mph 32.2 mph N/A   Clear
6:35 PM 73.4 °F 48.2 °F 41% 30.20 in 10.0 mi East 12.7 mph 21.9 mph N/A   Clear
6:55 PM 71.6 °F 48.2 °F 43% 30.20 in 10.0 mi East 12.7 mph 24.2 mph N/A   Clear
7:15 PM 68.0 °F 50.0 °F 52% 30.21 in 10.0 mi ENE 10.4 mph - N/A   Clear
7:35 PM 68.0 °F 50.0 °F 52% 30.21 in 10.0 mi ENE 10.4 mph - N/A   Clear
7:55 PM 66.2 °F 51.8 °F 60% 30.21 in 10.0 mi NE 9.2 mph - N/A   Clear
8:15 PM 64.4 °F 51.8 °F 64% 30.21 in 10.0 mi NE 11.5 mph - N/A   Clear
8:35 PM 64.4 °F 51.8 °F 64% 30.22 in 10.0 mi ENE 6.9 mph - N/A   Clear
8:55 PM 62.6 °F 51.8 °F 68% 30.23 in 10.0 mi NE 9.2 mph - N/A   Clear
9:15 PM 62.6 °F 51.8 °F 68% 30.24 in 10.0 mi NE 6.9 mph - N/A   Clear
9:35 PM 64.4 °F 51.8 °F 64% 30.24 in 10.0 mi Calm Calm - N/A   Clear
9:55 PM 62.6 °F 51.8 °F 68% 30.25 in 10.0 mi Calm Calm - N/A   Clear
10:15 PM 62.6 °F 51.8 °F 68% 30.25 in 10.0 mi NE 8.1 mph - N/A   Clear
10:35 PM 60.8 °F 51.8 °F 72% 30.25 in 10.0 mi NE 9.2 mph - N/A   Clear
10:55 PM 60.8 °F 51.8 °F 72% 30.25 in 10.0 mi NE 6.9 mph - N/A   Clear
11:15 PM 60.8 °F 51.8 °F 72% 30.26 in 10.0 mi NE 9.2 mph - N/A   Clear
11:35 PM 59.0 °F 51.8 °F 77% 30.26 in 10.0 mi NE 9.2 mph - N/A   Clear
11:55 PM 59.0 °F 53.6 °F 82% 30.26 in 10.0 mi NE 10.4 mph - N/A   Clear